"Pseudo-MPEC" for C3K7922

Created 2020 Oct 19 11:07:12 UT using Find_Orb

Click here for an explanation of pseudo-MPECs

 
 Astrometry: 
     C3K7922  C2020 10 16.35696304 01 04.25 +04 31 10.6    ~AG9M 21.61GVNEOCPG96
     C3K7922  C2020 10 16.36212904 01 00.77 +04 32 08.2    ~AG9M 21.08GVNEOCPG96
     C3K7922  C2020 10 16.36730804 00 57.27 +04 33 06.0    ~AG9M 21.05GVNEOCPG96
     C3K7922  C2020 10 16.37248204 00 53.77 +04 34 03.6    ~AG9M 20.83GVNEOCPG96
     C3K7922 KC2020 10 16.46544203 59 50.37 +04 51 23.8    ~AGBb       VNEOCPV06
     C3K7922 KC2020 10 16.46766203 59 48.92 +04 51 48.8    ~AGBb 21.90GVNEOCPV06
     C3K7922 KC2020 10 16.46988203 59 47.38 +04 52 13.2    ~AGBb 21.52GVNEOCPV06
     C3K7922 KC2020 10 16.47210303 59 45.87 +04 52 37.9    ~AGBb 21.07GVNEOCPV06
     C3K7922 KC2020 10 17.37990303 49 55.46 +07 38 17.4    ~AH9b 21.57GVNEOCPG96
     C3K7922 KC2020 10 17.38216103 49 53.92 +07 38 41.2    ~AH9b 21.66GVNEOCPG96
     C3K7922 KC2020 10 17.38442003 49 52.44 +07 39 05.3    ~AH9b 21.50GVNEOCPG96
     C3K7922 KC2020 10 18.29739503 40 11.10 +10 18 13.4    ~AI7M 20.79GVNEOCPV06
     C3K7922 KC2020 10 18.29917203 40 09.95 +10 18 31.7    ~AI7M 20.80GVNEOCPV06
     C3K7922 KC2020 10 18.30095003 40 08.82 +10 18 49.6    ~AI7M 20.87GVNEOCPV06
     C3K7922 KC2020 10 19L_gQ:Dn'4,_69=wAstrometrycP2A(6\LXaL_Q2;cWXa%:O1yf$qL01
     C3K7922 KC2020 10 19BUZrhUXredacted;7kyclick,P!here]bVNhgS(=e\]CS%ygQgC,L01
     C3K7922 pC2020 10 19y4fj3sAhfor0]_fc3/+@k+M_OZ(IoyUn3B9!;ZC%=\l[I!fjlhOtL01
     C3K7922 KC2020 10 19'XTy`0H//$XwexplanationqxoQutHX@)'Aoqh7!rYJq@[@ODx-AL01
     C3K7922 KC2020 10 19.34348703 29 20.22 +13 10 03.9    ~AJ8b 20.70GVNEOCPI52
     C3K7922 KC2020 10 19.34732303 29 17.83 +13 10 41.5    ~AJ8b 20.89GVNEOCPI52
     C3K7922 KC2020 10 19.35116003 29 15.43 +13 11 18.0    ~AJ8b 20.60GVNEOCPI52

Station data:
(G96) Mt. Lemmon Survey  (N32.442754 W110.788720)  US/Arizona.  Observers T.
   A. Pruyne, B. M. Africano, E. J. Christensen, G. A. Farneth, D. C. Fuls,
   A. R. Gibbs, A. D. Grauer, H. Gröller, J. A. Johnson, R. A. Kowalski, S.
   M. Larson, G. J. Leonard, D. Rankin, R. L. Seaman, F. C. Shelly. 1.5-m
   reflector + 10K CCD.
(I52) Steward Observatory, Mt. Lemmon Station  (N32.442547 W110.788920)
   US/Arizona.  Observers T. A. Pruyne, B. M. Africano, E. J. Christensen, G.
   A. Farneth, D. C. Fuls, A. R. Gibbs, A. D. Grauer, H. Gröller, J. A.
   Johnson, R. A. Kowalski, S. M. Larson, G. J. Leonard, D. Rankin, R. L.
   Seaman, F. C. Shelly. 1.0-m reflector + CCD.
(L01) Višnjan Observatory, Tičan  (N45.290900 E13.749300)  Croatia.
   Observers K. Korlević, E. Pettarin. Measurer E. Pettarin. 1.0-m f/2.9
   reflector + CCD.
(V06) Catalina Sky Survey-Kuiper  (N32.416847 W110.732550)  US/Arizona.
   Observers T. A. Pruyne, B. M. Africano, E. J. Christensen, G. A. Farneth,
   D. C. Fuls, A. R. Gibbs, A. D. Grauer, H. Gröller, J. A. Johnson, R. A.
   Kowalski, S. M. Larson, G. J. Leonard, D. Rankin, R. L. Seaman, F. C.
   Shelly. 1.55-m reflector + CCD.

Orbital elements:  C3K7922
   Perihelion 2020 Aug 20.312605 +/- 0.168 TT =  7:30:09 (JD 2459081.812605)
Epoch 2020 Oct 19.0 TT = JDT 2459141.5   Earth MOID: 0.1074   Ma: 0.0981
M  26.10078424 +/- 0.42             (J2000 ecliptic)          AutoNEOCP
n   0.43729139 +/- 0.00588          Peri.  282.71980 +/- 0.14
a   1.71905100 +/- 0.0154           Node    31.03736 +/- 0.017
e   0.5082334 +/- 0.00443           Incl.   27.80557 +/- 0.18
P   2.25/823.23d           H 24.2   G  0.15   U  9.3  
q 0.84537180 +/- 4.67e-5    Q 2.59273019 +/- 0.0313
From 21 observations 2020 Oct. 16-19; mean residual 0".34
Residuals in arcseconds: 
201016 G96  .75-  .32+    201016 V06  .16-  .05-    201019 L01  .16-  .05+    
201016 G96  .15-  .02-    201017 G96  .36+  .32+    201019 L01  .18-  .49+    
201016 G96  .29+  .29-    201017 G96  .12-  .09-    201019 L01  .49+  .03-    
201016 G96  .69+  .69-    201017 G96  .30+  .21-    201019 L01  .17+  .10-    
201016 V06  .51-  .13+    201018 V06  .16-  .08+    201019 I52  .58-  .87-    
201016 V06  .36+  .37+    201018 V06  .10-  .22+    201019 I52  .09-  .20+    
201016 V06  .13-  .01+    201018 V06  .26+  .05-    201019 I52  .27+  .17+    

Ephemerides (geocentric):
Date (UTC) HH   RA              Dec         delta   r     elong  mag " sig PA
---- -- -- --  -------------   -----------  ------ ------ -----  --- ---- ---
2020 10 19 11  03 28 09.548   +13 28 31.52  .15232 1.1334 152.7 21.5 .119 157
2020 10 19 12  03 27 44.202   +13 35 03.92  .15252 1.1338 152.8 21.5 .114 155
2020 10 19 13  03 27 18.891   +13 41 35.14  .15271 1.1341 153.0 21.5 .108 153
2020 10 19 14  03 26 53.615   +13 48 05.18  .15291 1.1344 153.1 21.5 .103 151
2020 10 19 15  03 26 28.375   +13 54 34.03  .15311 1.1347 153.2 21.5 .098 148
2020 10 19 16  03 26 03.171   +14 01 01.70  .15331 1.1350 153.4 21.5 .093 145
2020 10 19 17  03 25 38.002   +14 07 28.18  .15352 1.1353 153.5 21.5 .088 142
2020 10 19 18  03 25 12.869   +14 13 53.46  .15372 1.1356 153.6 21.5 .083 138
2020 10 19 19  03 24 47.773   +14 20 17.56  .15392 1.1359 153.8 21.5 .078 134
2020 10 19 20  03 24 22.712   +14 26 40.45  .15413 1.1363 153.9 21.5 .074 129
2020 10 19 21  03 23 57.688   +14 33 02.15  .15434 1.1366 154.0 21.5 .071 123
2020 10 19 22  03 23 32.700   +14 39 22.65  .15454 1.1369 154.1 21.5 .068 117
2020 10 19 23  03 23 07.748   +14 45 41.95  .15475 1.1372 154.3 21.5 .065 111
2020 10 20 00  03 22 42.834   +14 52 00.04  .15496 1.1375 154.4 21.5 .064 104
2020 10 20 01  03 22 17.956   +14 58 16.93  .15517 1.1378 154.5 21.5 .064  96
2020 10 20 02  03 21 53.115   +15 04 32.61  .15539 1.1381 154.7 21.5 .065  89
2020 10 20 03  03 21 28.311   +15 10 47.09  .15560 1.1384 154.8 21.5 .067  81
2020 10 20 04  03 21 03.545   +15 17 00.35  .15581 1.1388 154.9 21.5 .069  74
2020 10 20 05  03 20 38.815   +15 23 12.40  .15603 1.1391 155.0 21.5 .073  68
2020 10 20 06  03 20 14.123   +15 29 23.25  .15625 1.1394 155.2 21.5 .078  62
2020 10 20 07  03 19 49.469   +15 35 32.87  .15646 1.1397 155.3 21.5 .084  57
2020 10 20 08  03 19 24.852   +15 41 41.29  .15668 1.1400 155.4 21.5 .090  52
2020 10 20 09  03 19 00.274   +15 47 48.49  .15690 1.1403 155.5 21.5 .097  48
2020 10 20 10  03 18 35.733   +15 53 54.47  .15712 1.1406 155.6 21.5 .104  45
2020 10 20 11  03 18 11.230   +15 59 59.23  .15734 1.1410 155.8 21.5 .112  42
2020 10 20 12  03 17 46.765   +16 06 02.78  .15757 1.1413 155.9 21.5 .120  39
2020 10 20 13  03 17 22.338   +16 12 05.10  .15779 1.1416 156.0 21.5 .128  36
2020 10 20 14  03 16 57.950   +16 18 06.21  .15802 1.1419 156.1 21.5 .137  34
2020 10 20 15  03 16 33.600   +16 24 06.10  .15824 1.1422 156.2 21.5 .146  32
2020 10 20 16  03 16 09.289   +16 30 04.76  .15847 1.1425 156.4 21.5 .155  31
2020 10 20 17  03 15 45.017   +16 36 02.21  .15870 1.1428 156.5 21.5 .165  29
2020 10 20 18  03 15 20.783   +16 41 58.43  .15893 1.1432 156.6 21.5 .174  28
2020 10 20 19  03 14 56.588   +16 47 53.43  .15916 1.1435 156.7 21.5 .184  26
2020 10 20 20  03 14 32.432   +16 53 47.20  .15939 1.1438 156.8 21.5 .195  25
2020 10 20 21  03 14 08.316   +16 59 39.76  .15962 1.1441 156.9 21.5 .205  24
2020 10 20 22  03 13 44.238   +17 05 31.09  .15985 1.1444 157.0 21.5 .215  23
2020 10 20 23  03 13 20.200   +17 11 21.20  .16009 1.1447 157.1 21.5 .226  22
2020 10 21 00  03 12 56.201   +17 17 10.08  .16032 1.1450 157.3 21.5 .237  21
2020 10 21 01  03 12 32.242   +17 22 57.75  .16056 1.1454 157.4 21.5 .248  20
2020 10 21 02  03 12 08.322   +17 28 44.18  .16080 1.1457 157.5 21.5 .259  20
2020 10 21 03  03 11 44.442   +17 34 29.40  .16103 1.1460 157.6 21.5 .271  19
2020 10 21 04  03 11 20.602   +17 40 13.39  .16127 1.1463 157.7 21.5 .282  18
2020 10 21 05  03 10 56.801   +17 45 56.17  .16151 1.1466 157.8 21.5 .294  18
2020 10 21 06  03 10 33.041   +17 51 37.72  .16176 1.1469 157.9 21.5 .306  17
2020 10 21 07  03 10 09.321   +17 57 18.04  .16200 1.1472 158.0 21.5 .318  16
2020 10 21 08  03 09 45.640   +18 02 57.15  .16224 1.1476 158.1 21.5 .330  16
2020 10 21 09  03 09 22.000   +18 08 35.04  .16249 1.1479 158.2 21.5 .342  15
2020 10 21 10  03 08 58.401   +18 14 11.70  .16273 1.1482 158.3 21.5 .354  15